#timestamp,LO_Frequency,Hit,StdDev 
1557529215.5,286046998.2,N
1557529235.4,286046998.2,N
1557529255.2,286047002.2,N
1557529275.0,286047002.9,N
1557529275.9,286047002.9,N
1557529295.8,286047002.9,N
1557529315.6,286047004.3,N
1557529335.4,286046999.7,N
1557529355.3,286047002.4,N
1557529375.1,286047003.2,N
1557529395.9,286047003.1,N
1557529415.7,286047005.7,N
1557529435.5,286047006.2,N
1557529455.4,286047004.6,N
1557529475.2,286047003.7,N
1557529495.0,286047002.1,N
1557529495.9,286047002.1,N
1557529515.8,286047002.6,N
1557529535.6,286047002.6,N
1557529555.5,286047000.7,N
1557529575.3,286047001.5,N
1557529595.1,286047002.6,N
1557529615.9,286047001.9,N
1557529635.7,286047002.8,N
1557529655.5,286047000.0,N
1557529675.4,286047000.6,N
1557529695.2,286047000.6,N
1557529715.1,286047002.7,N
1557529716.0,286047002.7,N
1557529735.8,286047003.1,N
1557529755.6,286047004.6,N
1557529775.5,286047004.7,N
1557529795.3,286047004.5,N
1557529815.2,286047007.1,Y
1557529835.9,286047005.5,P
1557529855.7,286047004.5,P
1557529875.6,286047005.5,P
1557529895.4,286047003.1,N
1557529915.3,286047004.0,Y
1557529935.1,286046998.1,P
1557529936.0,286046998.1,N
1557529955.8,286046998.4,N
1557529975.7,286046998.7,N
1557529995.5,286046998.7,N
1557530015.3,286046998.3,N
1557530035.2,286046999.7,N
1557530055.0,286047000.0,N
1557530055.9,286047000.0,N
1557530075.8,286046998.5,N
1557530095.6,286047000.4,N
1557530115.4,286047000.1,N
1557530135.3,286047002.5,N
1557530155.1,286046999.8,N
1557530175.8,286047002.8,N
1557530195.7,286046999.4,N
1557530215.5,286047000.1,N
1557530235.4,286046996.6,N
1557530255.2,286046999.5,N
1557530275.0,286046998.5,N
1557530275.9,286046998.5,N
1557530295.8,286046997.1,N
1557530315.6,286046997.4,N
1557530335.4,286046996.8,N
1557530355.3,286046996.2,N
1557530375.1,286046996.2,N
1557530395.9,286046995.8,N
1557530415.7,286046997.4,N
1557530435.5,286046998.8,N
1557530455.4,286046997.8,N
1557530475.2,286046995.6,N
1557530495.0,286046994.6,Y
1557530496.0,286046994.6,P
1557530515.8,286046994.1,N
1557530535.6,286046992.2,P
1557530555.5,286046991.7,Y
1557530575.3,286046998.3,P
1557530595.1,286046998.4,N
1557530615.9,286046998.5,N
1557530635.7,286046998.4,N
1557530655.6,286046999.2,N
1557530675.4,286046999.3,N
1557530695.2,286047000.5,N
1557530715.1,286047000.4,N
1557530716.0,286047000.4,N
1557530735.8,286046999.5,N
1557530755.6,286046998.3,N
1557530775.5,286046996.6,N
1557530795.3,286046997.4,N
1557530815.2,286046999.1,N
1557530835.9,286046997.0,N
1557530855.7,286046998.6,N
1557530875.6,286046997.7,N
1557530895.4,286046997.5,N
1557530915.2,286046997.2,N
1557530935.1,286046997.6,N
1557530936.0,286046997.6,N
1557530955.8,286046996.0,Y
1557530975.7,286046996.6,P
1557530995.5,286046998.1,N
1557531015.3,286046998.4,N
1557531035.2,286046998.9,N
1557531055.0,286047002.4,Y
1557531055.9,286047002.4,P
1557531075.8,286047003.8,N
1557531095.6,286047001.4,N
1557531115.4,286047004.4,N
1557531135.3,286047004.0,N
1557531155.1,286047002.1,N
1557531175.8,286047002.3,N
1557531195.7,286047002.5,N
1557531215.5,286046999.7,N
1557531235.4,286047001.1,N
1557531255.2,286046999.3,N
1557531275.0,286047001.2,N
1557531275.9,286047001.2,N
1557531295.8,286046999.1,N
1557531315.6,286046999.2,N
1557531335.4,286046999.0,N
1557531355.3,286047001.7,N
1557531375.1,286047002.4,N
1557531395.9,286047002.0,N
1557531415.7,286047004.1,N
1557531435.5,286047001.9,N
1557531455.4,286047002.3,N
1557531475.2,286047001.3,N
1557531495.0,286047005.4,Y
1557531495.9,286047005.4,P
1557531515.8,286047005.3,N
1557531535.6,286047003.8,N
1557531555.5,286047002.2,N
1557531575.3,286047000.2,N
1557531595.1,286047002.4,N
1557531615.9,286046999.7,N
1557531635.7,286047001.3,N
1557531655.5,286047002.4,N
1557531675.4,286047002.0,N
1557531695.2,286047002.2,N
1557531715.1,286047000.1,N
1557531716.0,286047000.1,N
1557531735.8,286047001.4,N
1557531755.6,286047002.2,N
1557531775.5,286047002.1,N
1557531795.3,286047000.6,N
1557531815.1,286047000.4,N
1557531835.9,286046999.2,N
1557531855.7,286046996.6,N
1557531875.6,286046994.9,N
1557531895.4,286046995.8,N
1557531915.2,286046996.4,N
1557531935.1,286046997.7,N
1557531936.0,286046997.7,N
1557531955.8,286047000.5,N
1557531975.6,286047000.2,N
1557531995.5,286047003.9,N
1557532015.3,286047004.4,N
1557532035.2,286047001.9,N
1557532055.9,286046998.2,N
1557532075.7,286046999.9,N
1557532095.6,286047002.7,N
1557532115.4,286047001.9,N
1557532135.2,286047001.7,N
1557532155.1,286047003.6,N
1557532156.0,286047003.6,N
1557532175.8,286047001.7,N
1557532195.7,286047001.0,N
1557532215.5,286047000.1,N
1557532235.3,286046998.1,N
1557532255.2,286047000.2,N
1557532275.0,286047003.5,N
1557532275.9,286047003.5,N
1557532295.7,286047003.6,N
1557532315.6,286047001.3,N
1557532335.4,286047000.2,N
1557532355.3,286047002.1,N
1557532375.1,286046998.5,N
1557532376.0,286046998.5,N
1557532395.8,286047001.2,N
1557532415.7,286047003.9,N
1557532435.5,286047004.0,N
1557532455.3,286047001.4,N
1557532475.2,286047003.8,N
1557532495.0,286047001.7,N
1557532495.9,286047001.7,N
1557532515.8,286047005.7,Y
1557532535.6,286047002.5,P
1557532555.4,286047003.2,P
1557532575.3,286047001.6,N
1557532595.1,286046998.1,N
1557532615.8,286047002.8,N
1557532635.7,286047001.7,N
1557532655.5,286047004.2,N
1557532675.4,286046999.8,N
1557532695.2,286047000.9,N
1557532715.0,286047002.6,N
1557532715.9,286047002.6,N
1557532735.8,286047002.4,N
1557532755.6,286047002.4,N
1557532775.4,286047000.9,N
1557532795.3,286047000.3,N
